Location: Chequamegon National Forest
(46.1070°N, 90.8420°W)
Time: 13:08:38
(UTC-05:00)

Amateur Radio Satellites - All Passes

Search period start: 28 May 2015 12:38
Search period end: 29 May 2015 12:38
Location: Chequamegon National Forest, 46.1070°N, 90.8420°W

Satellite Date Start Highest point End Downlink Frequencies (MHz)
Time Altitude Azimuth
CUSAT 1 28 May 12:43:25 12:50:39 50° 91° (E) 12:58:38 437.405
QB50P2 28 May 12:43:39 12:45:42 13° 273° (W) 12:47:32 145.880/145.840
ITAMSAT 1 28 May 12:46:07 12:47:50 12° 55° (NE) 12:49:46 435.822/435.867
UKube-1 28 May 12:50:00 12:53:33 24° 295° (WNW) 12:57:01 .
ZACube-1 28 May 12:53:20 12:54:47 11° 301° (WNW) 12:56:02 437.345
DX 1 28 May 13:01:27 13:04:33 19° 297° (WNW) 13:07:33 434.975-435.025
50 SAT 28 May 13:07:51 13:10:47 20° 294° (WNW) 13:13:37 437.505
CUBEBUG 1 28 May 13:14:27 13:18:41 42° 290° (WNW) 13:22:52 437.445
VELOX 1 28 May 13:21:23 13:24:54 22° 296° (WNW) 13:28:18 145.980
AO-7 28 May 13:21:35 13:25:16 14° 39° (NE) 13:29:18 29.400- 29.500
Gurwin Techsat 1B 28 May 13:30:06 13:34:21 26° 63° (ENE) 13:38:43 435.225
ESTCUBE 1 28 May 13:30:07 13:34:02 28° 293° (WNW) 13:37:52 437.505/2401.250
RS-15 28 May 13:37:47 13:47:16 30° 355° (N) 13:57:05 29.354- 29.394
SPROUT 28 May 13:47:01 13:51:20 62° 287° (WNW) 13:55:36 437.525
AISAT 28 May 13:55:13 13:56:50 12° 302° (WNW) 13:58:14 437.250
GONETS M04 28 May 13:55:20 14:04:12 85° 279° (W) 14:13:07
Oscar 19 28 May 14:03:53 14:08:58 55° 260° (W) 14:14:06 437.125/150
TISAT 1 28 May 14:04:06 14:08:19 56° 288° (WNW) 14:12:28 437.305
DANDE 28 May 14:05:05 14:12:35 70° 285° (WNW) 14:21:11 436.750
ITUPSAT 1 28 May 14:05:16 14:09:13 26° 93° (E) 14:13:14 437.325
BEESAT 28 May 14:11:46 14:15:57 30° 95° (E) 14:20:09 436.000
Cosmos 2499 28 May 14:12:52 14:19:00 26° 84° (E) 14:25:03 435.465 / 435.565
SWISSCUBE 28 May 14:20:21 14:24:50 39° 97° (E) 14:29:19 437.505
ITAMSAT 1 28 May 14:21:22 14:26:30 71° 73° (ENE) 14:31:42 435.822/435.867
CUSAT 1 28 May 14:26:09 14:33:32 44° 293° (WNW) 14:41:24 437.405
AO-7 28 May 15:08:24 15:16:13 49° 61° (ENE) 15:24:08 29.400- 29.500
Gurwin Techsat 1B 28 May 15:08:56 15:14:05 50° 261° (W) 15:19:15 435.225
JAS-2 28 May 15:17:31 15:23:37 47° 69° (ENE) 15:29:07 435.910
HORYU 2 28 May 15:19:24 15:23:37 42° 69° (ENE) 15:27:51 437.375
KKS-1 28 May 15:25:50 15:29:48 31° 95° (E) 15:33:46 437.445
O/OREOS (USA 219) 28 May 15:31:58 15:36:13 42° 108° (ESE) 15:40:30 437.305
ITUPSAT 1 28 May 15:42:47 15:47:16 40° 291° (WNW) 15:51:43 437.325
BEESAT 28 May 15:49:30 15:53:49 34° 293° (WNW) 15:58:07 436.000
DANDE 28 May 15:52:10 15:57:43 19° 309° (NW) 16:03:15 436.750
RS-15 28 May 15:53:06 16:03:38 41° 28° (NNE) 16:14:42 29.354- 29.394
GONETS M04 28 May 15:56:05 16:02:40 22° 304° (WNW) 16:08:56
SWISSCUBE 28 May 15:58:30 16:02:33 27° 295° (WNW) 16:06:31 437.505
ITAMSAT 1 28 May 16:03:21 16:06:38 16° 272° (W) 16:09:45 435.822/435.867
Cosmos 2499 28 May 16:03:42 16:11:41 67° 282° (WNW) 16:19:07 435.465 / 435.565
CUSAT 1 28 May 16:15:58 16:18:48 12° 316° (NW) 16:21:11 437.405
STARS 28 May 16:25:32 16:30:00 79° 103° (ESE) 16:34:24 437.465
CUTE-I 28 May 16:49:26 16:52:14 15° 57° (ENE) 16:55:14 437.470
BEESAT 3 28 May 16:52:18 16:52:31 10° 109° (ESE) 16:52:58 437.485
HORYU 2 28 May 16:56:55 17:00:27 22° 267° (W) 17:03:53 437.375
AO-7 28 May 17:01:17 17:09:09 44° 262° (W) 17:17:00 29.400- 29.500
KKS-1 28 May 17:02:27 17:06:24 30° 293° (WNW) 17:10:16 437.445
JAS-2 28 May 17:03:10 17:08:55 31° 265° (W) 17:14:02 435.910
MOZHAYETS 4 28 May 17:07:09 17:11:12 31° 95° (E) 17:15:18
Cubesat XI-IV 28 May 17:09:17 17:13:09 22° 61° (ENE) 17:17:11 437.490
O/OREOS (USA 219) 28 May 17:12:07 17:15:51 24° 308° (NW) 17:19:31 437.305
YUBILEINY 28 May 17:37:31 17:45:05 33° 64° (ENE) 17:52:46 435.215
BEESAT 2 28 May 17:40:01 17:43:26 26° 116° (ESE) 17:46:57 435.950
Cosmos 2491 28 May 17:49:30 17:53:47 15° 75° (ENE) 17:58:38 435.465 / 435.565
Cosmos 2499 28 May 18:02:29 18:06:31 14° 306° (NW) 18:10:02 435.465 / 435.565
STARS 28 May 18:03:41 18:05:54 13° 300° (WNW) 18:07:56 437.465
RS-15 28 May 18:05:57 18:17:36 87° 234° (SW) 18:29:43 29.354- 29.394
BRITE-PL 28 May 18:22:13 18:23:25 11° 53° (NE) 18:24:56 437.365/2234.400
BEESAT 3 28 May 18:25:48 18:29:53 89° 127° (SE) 18:34:02 437.485
CUTE-I 28 May 18:26:18 18:31:37 87° 75° (ENE) 18:37:00 437.470
MOZHAYETS 4 28 May 18:44:24 18:48:24 30° 293° (WNW) 18:52:22
Cubesat XI-IV 28 May 18:47:36 18:52:51 62° 259° (WSW) 18:58:10 437.490
CUBESAT XI-V 28 May 18:50:49 18:55:02 32° 95° (E) 18:59:17 437.345
DOVE 4 28 May 19:06:42 19:08:23 12° 56° (NE) 19:10:21 437.250
STRAND 1 28 May 19:16:06 19:20:14 24° 92° (E) 19:24:28 437.568
BEESAT 2 28 May 19:17:30 19:21:23 39° 314° (NW) 19:25:18 435.950
AIST 2 28 May 19:18:45 19:23:01 76° 124° (SE) 19:27:19 435.215
PRISM 28 May 19:26:30 19:30:09 30° 96° (E) 19:33:52 437.425
HO-68 28 May 19:29:52 19:35:58 32° 59° (ENE) 19:42:10 435.675
YUBILEINY 28 May 19:34:01 19:42:35 63° 267° (W) 19:51:06 435.215
Cosmos 2504 28 May 19:36:52 19:41:08 17° 56° (ENE) 19:45:41 435.465 / 435.565
Cosmos 2491 28 May 19:40:29 19:49:12 72° 95° (E) 19:58:02 435.465 / 435.565
M-CUBED/EXP-1 PRIME 28 May 19:42:23 19:42:41 10° 95° (E) 19:43:10 437.505
AUBIESAT-1 28 May 19:48:27 19:49:02 10° 95° (E) 19:49:46 437.475
GOMX 1 28 May 19:49:04 19:53:50 37° 67° (ENE) 19:58:51 467.674
BRITE-PL 28 May 19:55:42 20:00:50 60° 72° (ENE) 20:06:21 437.365/2234.400
BEESAT 3 28 May 20:05:46 20:08:29 17° 326° (NNW) 20:11:08 437.485
CINEMA 3 28 May 20:05:59 20:09:25 19° 62° (ENE) 20:13:00 145.822/145.860
CUTE-I 28 May 20:09:53 20:12:33 13° 274° (W) 20:14:56 437.470
RS-15 28 May 20:19:39 20:28:47 26° 256° (WSW) 20:37:38 29.354- 29.394
CANX-2 28 May 20:26:40 20:30:47 49° 72° (ENE) 20:34:55 2200.000
CUBESAT XI-V 28 May 20:28:17 20:32:27 31° 292° (WNW) 20:36:33 437.345
CUTE 1.7 + AOD 2 28 May 20:29:56 20:34:02 48° 72° (ENE) 20:38:09 437.475
ZACube-1 28 May 20:39:25 20:41:21 13° 60° (ENE) 20:43:29 437.345
DOVE 4 28 May 20:40:04 20:45:13 68° 74° (ENE) 20:50:33 437.250
AIST 1 28 May 20:42:26 20:46:35 57° 96° (E) 20:50:49
CUBEBUG 2 28 May 20:44:26 20:48:00 22° 65° (ENE) 20:51:40 437.445
Oscar 11 28 May 20:45:55 20:49:12 22° 65° (ENE) 20:52:35 145.826/435.025
SEEDS 28 May 20:49:23 20:53:34 65° 74° (ENE) 20:57:45 437.485
STRAND 1 28 May 20:54:46 20:59:42 47° 291° (WNW) 21:04:38 437.568
AIST 2 28 May 20:58:56 21:02:07 19° 325° (NW) 21:05:13 435.215
COMPASS 1 28 May 20:59:30 21:03:38 67° 75° (ENE) 21:07:48 437.405
PRISM 28 May 21:02:00 21:05:34 27° 293° (WNW) 21:09:03 437.425
AAUSAT CUBESAT 2 28 May 21:09:56 21:14:05 75° 75° (ENE) 21:18:15 437.432
M-CUBED/EXP-1 PRIME 28 May 21:14:43 21:17:57 50° 293° (WNW) 21:21:10 437.505
HO-68 28 May 21:16:15 21:23:22 60° 258° (WSW) 21:30:28 435.675
AUBIESAT-1 28 May 21:21:00 21:24:13 48° 292° (WNW) 21:27:25 437.475
DELFI C3 28 May 21:24:27 21:28:09 36° 70° (ENE) 21:31:52 145.870
UWE-3 28 May 21:26:38 21:31:03 42° 70° (ENE) 21:35:27 435.000/436.395/437.385
GOMX 1 28 May 21:27:10 21:31:57 35° 266° (W) 21:36:54 467.674
Cosmos 2504 28 May 21:28:41 21:35:57 83° 80° (E) 21:43:11 435.465 / 435.565
FUNcube-1 28 May 21:31:34 21:35:46 37° 69° (ENE) 21:39:58 145.935
YUBILEINY 28 May 21:34:17 21:37:47 12° 287° (WNW) 21:40:40 435.215
BRITE-PL 28 May 21:35:52 21:39:52 21° 273° (W) 21:43:54 437.365/2234.400
Cosmos 2491 28 May 21:39:31 21:47:02 29° 298° (WNW) 21:54:23 435.465 / 435.565
CINEMA 3 28 May 21:41:10 21:46:09 65° 259° (W) 21:51:11 145.822/145.860
AISAT 28 May 21:42:21 21:44:48 15° 61° (ENE) 21:47:25 437.250
HUMSAT D 28 May 21:51:19 21:54:58 28° 68° (ENE) 21:58:41 437.325/437.525
CANX-2 28 May 22:04:11 22:07:02 17° 270° (W) 22:09:46 2200.000
CUTE 1.7 + AOD 2 28 May 22:07:22 22:10:16 17° 270° (W) 22:13:02 437.475
GONETS M04 28 May 22:08:13 22:11:46 13° 47° (NE) 22:15:51
UKube-1 28 May 22:10:39 22:14:45 44° 70° (ENE) 22:18:55 .
ZACube-1 28 May 22:12:31 22:17:08 87° 260° (W) 22:21:43 437.345
50 SAT 28 May 22:19:44 22:23:14 30° 69° (ENE) 22:26:46 437.505
CUBEBUG 2 28 May 22:19:45 22:24:24 50° 262° (W) 22:29:02 437.445
DOVE 4 28 May 22:19:57 22:23:33 18° 273° (W) 22:27:01 437.250
Oscar 11 28 May 22:21:04 22:25:10 41° 262° (W) 22:29:17 145.826/435.025
DX 1 28 May 22:22:10 22:26:28 63° 73° (ENE) 22:30:49 434.975-435.025
AIST 1 28 May 22:22:10 22:24:43 15° 295° (WNW) 22:27:09
SEEDS 28 May 22:27:51 22:29:52 13° 273° (W) 22:31:41 437.485
UNISAT 6 28 May 22:32:04 22:34:05 13° 87° (E) 22:36:17 437.425
CUBEBUG 1 28 May 22:37:24 22:40:56 25° 66° (ENE) 22:44:34 437.445
COMPASS 1 28 May 22:38:04 22:39:51 12° 273° (W) 22:41:26 437.405
VELOX 1 28 May 22:44:10 22:48:28 53° 72° (ENE) 22:52:52 145.980
AAUSAT CUBESAT 2 28 May 22:49:12 22:50:18 11° 274° (W) 22:51:10 437.432
ESTCUBE 1 28 May 22:55:09 22:59:21 42° 70° (ENE) 23:03:37 437.505/2401.250
DELFI C3 28 May 23:00:19 23:03:25 20° 268° (W) 23:06:24 145.870
POPSAT HIP 1 28 May 23:01:34 23:03:11 12° 87° (E) 23:05:01 437.405
DUCHIFAT 1 28 May 23:01:53 23:03:23 12° 87° (E) 23:05:07 145.980
DANDE 28 May 23:02:54 23:09:32 29° 59° (ENE) 23:15:13 436.750
UWE-3 28 May 23:03:57 23:07:45 23° 268° (W) 23:11:27 435.000/436.395/437.385
FUNcube-1 28 May 23:08:19 23:12:11 26° 267° (W) 23:15:58 145.935
SPROUT 28 May 23:09:22 23:11:59 16° 63° (ENE) 23:14:46 437.525
HO-68 28 May 23:11:36 23:12:50 10° 280° (W) 23:13:27 435.675
ANTELSAT 28 May 23:14:00 23:18:01 35° 96° (E) 23:21:59 437.575/2403.000
BUGSAT 1 28 May 23:15:47 23:17:14 12° 87° (E) 23:18:54 437.445
AISAT 28 May 23:16:26 23:20:53 71° 258° (WSW) 23:25:23 437.250
CUSAT 1 28 May 23:20:37 23:27:30 42° 67° (ENE) 23:32:59 437.405
Cosmos 2504 28 May 23:23:43 23:28:29 18° 280° (W) 23:32:54 435.465 / 435.565
TISAT 1 28 May 23:24:29 23:27:12 17° 63° (ENE) 23:30:04 437.305
HUMSAT D 28 May 23:26:48 23:30:40 31° 265° (W) 23:34:29 437.325/437.525
ISS 28 May 23:36:31 23:39:40 50° 146° (SE) 23:42:50 145.825
QB50P1 28 May 23:43:39 23:47:32 33° 96° (E) 23:51:25 145.935-145.965
TIGRISAT 28 May 23:45:37 23:50:02 73° 102° (ESE) 23:54:19 435.000
POLYITAN 1 28 May 23:46:46 23:50:45 36° 97° (E) 23:54:42 437.675
UKube-1 28 May 23:47:56 23:51:08 20° 268° (W) 23:54:16 .
50 SAT 28 May 23:54:39 23:57:58 24° 266° (W) 00:01:13 437.505
PCSat 28 May 23:59:05 00:03:01 21° 108° (ESE) 00:07:06 145.827
O/OREOS (USA 219) 29 May 00:00:44 00:03:47 18° 48° (NE) 00:06:55 437.305
DX 1 29 May 00:00:46 00:03:13 14° 271° (W) 00:05:29 434.975-435.025
GONETS M04 29 May 00:02:39 00:11:16 56° 74° (ENE) 00:19:50
UNISAT 6 29 May 00:07:03 00:11:26 65° 287° (WNW) 00:15:41 437.425
CUBEBUG 1 29 May 00:13:05 00:17:09 36° 264° (W) 00:21:14 437.445
NANOSAT C BR1 29 May 00:13:58 00:18:15 70° 102° (ESE) 00:22:29 145.865
VELOX 1 29 May 00:22:25 00:25:25 17° 270° (W) 00:28:17 145.980
QB50P2 29 May 00:23:34 00:27:54 90° 291° (WNW) 00:32:10 145.880/145.840
ESTCUBE 1 29 May 00:32:55 00:36:26 22° 268° (W) 00:39:53 437.505/2401.250
POPSAT HIP 1 29 May 00:35:21 00:39:38 70° 286° (WNW) 00:43:52 437.405
DUCHIFAT 1 29 May 00:35:31 00:39:47 72° 286° (WNW) 00:44:00 145.980
SPROUT 29 May 00:43:23 00:47:40 59° 260° (W) 00:51:58 437.525
DANDE 29 May 00:45:48 00:53:38 66° 265° (W) 00:59:44 436.750
BUGSAT 1 29 May 00:49:00 00:53:17 73° 286° (WNW) 00:57:31 437.445
ANTELSAT 29 May 00:51:03 00:54:41 25° 294° (WNW) 00:58:10 437.575/2403.000
TISAT 1 29 May 00:58:26 01:02:37 54° 260° (W) 01:06:49 437.305
CUSAT 1 29 May 01:03:36 01:10:07 37° 273° (W) 01:15:14 437.405
BEESAT 3 29 May 01:04:58 01:07:59 19° 37° (NE) 01:11:01 437.485
ISS 29 May 01:13:04 01:16:10 39° 345° (NNW) 01:19:16 145.825
ITUPSAT 1 29 May 01:14:26 01:18:49 39° 69° (ENE) 01:23:17 437.325
QB50P1 29 May 01:19:42 01:23:18 26° 293° (WNW) 01:26:47 145.935-145.965
BEESAT 29 May 01:20:36 01:25:06 45° 70° (ENE) 01:29:40 436.000
POLYITAN 1 29 May 01:23:01 01:26:30 24° 294° (WNW) 01:29:53 437.675
TIGRISAT 29 May 01:23:59 01:26:15 14° 300° (WNW) 01:28:19 435.000
SWISSCUBE 29 May 01:29:16 01:33:56 59° 72° (ENE) 01:38:38 437.505
O/OREOS (USA 219) 29 May 01:39:15 01:43:41 63° 249° (WSW) 01:48:06 437.305
PCSat 29 May 01:40:37 01:46:00 65° 306° (NW) 01:51:26 145.827
NANOSAT C BR1 29 May 01:51:18 01:53:35 14° 299° (WNW) 01:55:44 145.865
STARS 29 May 01:51:28 01:53:13 12° 59° (ENE) 01:55:10 437.465
Cosmos 2499 29 May 01:51:33 01:58:22 49° 73° (ENE) 02:05:17 435.465 / 435.565
BEESAT 2 29 May 01:56:17 02:00:11 39° 46° (NE) 02:04:02 435.950
GONETS M04 29 May 02:00:01 02:07:50 36° 275° (W) 02:15:26
AIST 2 29 May 02:00:27 02:03:30 19° 35° (NE) 02:06:34 435.215
QB50P2 29 May 02:01:49 02:03:09 11° 301° (WNW) 02:04:19 145.880/145.840
Oscar 19 29 May 02:12:51 02:17:46 43° 98° (E) 02:22:40 437.125/150
KKS-1 29 May 02:26:16 02:30:25 39° 69° (ENE) 02:34:37 437.445
DANDE 29 May 02:32:02 02:35:08 13° 287° (WNW) 02:37:36 436.750
ITAMSAT 1 29 May 02:32:24 02:36:14 21° 91° (E) 02:40:11 435.822/435.867
VERMONT LUNAR 29 May 02:32:28 02:35:09 24° 169° (SSE) 02:37:51 437.305
BEESAT 3 29 May 02:42:19 02:46:23 67° 238° (WSW) 02:50:24 437.485
ISS 29 May 02:50:08 02:53:04 30° 5° (N) 02:56:02 145.825
SO-50 29 May 02:50:37 02:54:56 38° 118° (ESE) 02:59:27 436.795
ITUPSAT 1 29 May 02:52:52 02:56:52 26° 267° (W) 03:00:50 437.325
BEESAT 29 May 02:59:26 03:03:12 22° 268° (W) 03:06:52 436.000
SWISSCUBE 29 May 03:09:03 03:12:15 17° 271° (W) 03:15:17 437.505
AO-7 29 May 03:11:40 03:12:19 10° 79° (E) 03:13:45 29.400- 29.500
Gurwin Techsat 1B 29 May 03:22:17 03:27:31 54° 100° (E) 03:32:43 435.225
STARS 29 May 03:24:37 03:29:04 87° 256° (WSW) 03:33:34 437.465
PCSat 29 May 03:27:05 03:30:33 17° 329° (NNW) 03:33:56 145.827
PHONESAT 2.4 29 May 03:27:51 03:30:41 24° 165° (SSE) 03:33:33 2401.200-2431.200
BEESAT 2 29 May 03:34:41 03:38:07 25° 244° (WSW) 03:41:28 435.950
AIST 2 29 May 03:38:20 03:42:36 76° 236° (SW) 03:46:45 435.215
Cosmos 2499 29 May 03:45:09 03:51:18 32° 273° (W) 03:57:23 435.465 / 435.565
Oscar 19 29 May 03:52:34 03:56:57 28° 296° (WNW) 04:01:12 437.125/150
KKS-1 29 May 04:03:31 04:07:12 24° 267° (W) 04:10:49 437.445
JAS-2 29 May 04:08:44 04:13:06 27° 94° (E) 04:17:38 435.910
VERMONT LUNAR 29 May 04:09:05 04:11:54 28° 185° (S) 04:14:44 437.305
ITAMSAT 1 29 May 04:11:01 04:16:09 57° 289° (WNW) 04:21:16 435.822/435.867
MOZHAYETS 4 29 May 04:11:27 04:15:42 40° 70° (ENE) 04:19:58
ISS 29 May 04:26:36 04:29:52 68° 24° (NNE) 04:33:07 145.825
SO-50 29 May 04:31:06 04:35:31 36° 317° (NW) 04:40:04 436.795
HORYU 2 29 May 04:44:19 04:48:43 59° 101° (E) 04:53:05 437.375
AO-7 29 May 04:59:07 05:07:19 57° 102° (ESE) 05:15:33 29.400- 29.500
Gurwin Techsat 1B 29 May 05:02:57 05:07:11 24° 298° (WNW) 05:11:19 435.225
PHONESAT 2.4 29 May 05:05:12 05:08:21 32° 182° (S) 05:11:29 2401.200-2431.200
VERMONT LUNAR 29 May 05:46:37 05:48:33 15° 201° (SSW) 05:50:28 437.305
Cosmos 2491 29 May 05:47:52 05:56:05 42° 69° (ENE) 06:04:20 435.465 / 435.565
MOZHAYETS 4 29 May 05:49:22 05:53:05 24° 268° (W) 05:56:44
JAS-2 29 May 05:53:37 05:58:28 40° 292° (WNW) 06:03:22 435.910
CUBESAT XI-V 29 May 05:56:38 06:00:55 41° 70° (ENE) 06:05:18 437.345
ISS 29 May 06:03:27 06:06:02 21° 222° (SW) 06:08:34 145.825
SO-50 29 May 06:15:32 06:17:32 12° 341° (NNW) 06:19:26 436.795
PRISM 29 May 06:19:06 06:22:42 31° 68° (ENE) 06:26:21 437.425
HORYU 2 29 May 06:22:01 06:24:57 17° 298° (WNW) 06:27:44 437.375
M-CUBED/EXP-1 PRIME 29 May 06:30:52 06:34:21 29° 64° (ENE) 06:37:39 437.505
STRAND 1 29 May 06:34:17 06:39:06 45° 69° (ENE) 06:43:59 437.568
AUBIESAT-1 29 May 06:36:45 06:40:11 29° 64° (ENE) 06:43:27 437.475
CUTE-I 29 May 06:41:12 06:45:47 29° 94° (E) 06:50:27 437.470
YUBILEINY 29 May 06:42:25 06:49:48 33° 84° (E) 06:57:22 435.215
PHONESAT 2.4 29 May 06:43:20 06:45:58 20° 198° (SSW) 06:48:34 2401.200-2431.200
AIST 1 29 May 06:47:28 06:50:39 20° 68° (ENE) 06:53:55
AO-7 29 May 06:52:18 06:59:56 40° 302° (WNW) 07:07:26 29.400- 29.500
PCSat 29 May 07:01:18 07:02:39 11° 21° (NNE) 07:04:08 145.827
Cubesat XI-IV 29 May 07:02:15 07:07:21 43° 98° (E) 07:12:29 437.490
CUBESAT XI-V 29 May 07:34:50 07:38:33 23° 268° (W) 07:42:14 437.345
Cosmos 2491 29 May 07:44:46 07:53:13 50° 271° (W) 08:01:30 435.465 / 435.565
PRISM 29 May 07:54:47 07:58:12 25° 266° (W) 08:01:34 437.425
BRITE-PL 29 May 07:59:11 08:03:02 19° 86° (E) 08:06:55 437.365/2234.400
M-CUBED/EXP-1 PRIME 29 May 08:05:41 08:09:12 26° 258° (WSW) 08:12:27 437.505
AUBIESAT-1 29 May 08:11:31 08:14:58 26° 258° (WSW) 08:18:10 437.475
STRAND 1 29 May 08:14:19 08:18:33 25° 267° (W) 08:22:42 437.568
CUTE-I 29 May 08:20:59 08:26:03 43° 292° (WNW) 08:31:05 437.470
Cosmos 2504 29 May 08:22:03 08:24:46 12° 76° (ENE) 08:27:58 435.465 / 435.565
AIST 1 29 May 08:24:23 08:28:34 43° 267° (W) 08:32:43
RS-15 29 May 08:32:52 08:42:56 47° 112° (ESE) 08:53:23 29.354- 29.394
YUBILEINY 29 May 08:37:33 08:46:13 61° 285° (WNW) 08:54:51 435.215
DOVE 4 29 May 08:38:25 08:41:31 17° 86° (E) 08:44:43 437.250
HO-68 29 May 08:41:49 08:47:17 24° 90° (E) 08:52:56 435.675
Cubesat XI-IV 29 May 08:42:41 08:47:19 30° 296° (WNW) 08:51:51 437.490
PCSat 29 May 08:42:56 08:47:51 34° 45° (NE) 08:52:47 145.827
AO-7 29 May 08:47:54 08:50:32 12° 325° (NW) 08:52:49 29.400- 29.500
TIGRISAT 29 May 09:13:07 09:14:52 12° 59° (ENE) 09:16:48 435.000
GOMX 1 29 May 09:26:12 09:31:36 68° 101° (E) 09:36:40 467.674
UNISAT 6 29 May 09:33:02 09:36:14 19° 63° (ENE) 09:39:32 437.425
CINEMA 3 29 May 09:34:30 09:38:26 26° 92° (E) 09:42:16 145.822/145.860
BRITE-PL 29 May 09:36:30 09:42:10 69° 287° (WNW) 09:47:31 437.365/2234.400
SO-50 29 May 09:39:34 09:42:54 18° 29° (NNE) 09:46:20 436.795
CANX-2 29 May 09:45:05 09:49:18 71° 102° (ESE) 09:53:29 2200.000
QB50P2 29 May 09:46:13 09:47:37 12° 60° (ENE) 09:49:14 145.880/145.840
CUTE 1.7 + AOD 2 29 May 09:48:13 09:52:27 69° 101° (ESE) 09:56:38 437.475
DUCHIFAT 1 29 May 09:56:46 09:58:56 14° 61° (ENE) 10:01:15 145.980
POPSAT HIP 1 29 May 09:56:52 09:59:08 14° 62° (ENE) 10:01:34 437.405
ZACube-1 29 May 10:00:17 10:02:41 15° 88° (E) 10:05:13 437.345
Oscar 11 29 May 10:05:52 10:09:37 29° 95° (E) 10:13:23 145.826/435.025
SEEDS 29 May 10:06:48 10:11:01 90° 61° (ENE) 10:15:12 437.485
BUGSAT 1 29 May 10:08:36 10:10:24 13° 61° (ENE) 10:12:24 437.445
Cosmos 2504 29 May 10:08:51 10:16:58 67° 94° (E) 10:24:34 435.465 / 435.565
CUBEBUG 2 29 May 10:08:55 10:12:46 29° 94° (E) 10:16:32 437.445
DOVE 4 29 May 10:14:48 10:19:55 66° 286° (WNW) 10:24:42 437.250
ANTELSAT 29 May 10:15:00 10:19:26 45° 71° (ENE) 10:23:50 437.575/2403.000
COMPASS 1 29 May 10:15:53 10:20:04 89° 292° (WNW) 10:24:13 437.405
AAUSAT CUBESAT 2 29 May 10:25:49 10:29:59 81° 285° (WNW) 10:34:06 437.432
PCSat 29 May 10:26:15 10:31:27 46° 245° (WSW) 10:36:34 145.827
HO-68 29 May 10:28:36 10:35:46 73° 290° (WNW) 10:42:52 435.675
DELFI C3 29 May 10:35:52 10:39:43 43° 98° (E) 10:43:33 145.870
QB50P1 29 May 10:38:42 10:42:36 35° 69° (ENE) 10:46:33 145.935-145.965
YUBILEINY 29 May 10:40:51 10:45:27 14° 311° (NW) 10:49:34 435.215
POLYITAN 1 29 May 10:42:03 10:46:03 39° 70° (ENE) 10:50:07 437.675
RS-15 29 May 10:44:19 10:55:08 61° 317° (NW) 11:06:19 29.354- 29.394
TIGRISAT 29 May 10:46:17 10:50:59 87° 76° (ENE) 10:55:38 435.000
UWE-3 29 May 10:50:28 10:54:50 62° 100° (E) 10:59:04 435.000/436.395/437.385
FUNcube-1 29 May 10:53:31 10:57:45 51° 99° (E) 11:01:52 145.935
GOMX 1 29 May 11:05:18 11:09:10 20° 299° (WNW) 11:12:46 467.674
AISAT 29 May 11:05:29 11:08:37 19° 91° (E) 11:11:52 437.250
HUMSAT D 29 May 11:08:03 11:11:53 34° 96° (E) 11:15:39 437.325/437.525
UNISAT 6 29 May 11:08:04 11:12:40 56° 260° (W) 11:17:14 437.425
NANOSAT C BR1 29 May 11:08:38 11:12:53 72° 74° (ENE) 11:17:12 145.865
CINEMA 3 29 May 11:11:24 11:15:46 36° 291° (WNW) 11:19:53 145.822/145.860
BRITE-PL 29 May 11:17:10 11:19:41 13° 305° (NW) 11:21:55 437.365/2234.400
GONETS M04 29 May 11:17:49 11:19:53 11° 71° (ENE) 11:22:38
QB50P2 29 May 11:18:36 11:22:55 87° 256° (WSW) 11:27:16 145.880/145.840
SO-50 29 May 11:19:23 11:24:22 71° 51° (NE) 11:29:17 436.795
CANX-2 29 May 11:22:37 11:24:44 13° 298° (WNW) 11:26:41 2200.000
CUTE 1.7 + AOD 2 29 May 11:25:42 11:27:53 14° 298° (WNW) 11:29:54 437.475
50 SAT 29 May 11:27:57 11:31:25 31° 96° (E) 11:34:53 437.505
DUCHIFAT 1 29 May 11:29:59 11:34:15 70° 258° (WSW) 11:38:33 145.980
POPSAT HIP 1 29 May 11:30:15 11:34:32 68° 258° (WSW) 11:38:51 437.405
UKube-1 29 May 11:31:22 11:35:41 57° 101° (E) 11:39:58 .
ZACube-1 29 May 11:35:15 11:39:31 56° 287° (WNW) 11:43:39 437.345
BUGSAT 1 29 May 11:41:09 11:45:19 75° 256° (WSW) 11:49:35 437.445
Oscar 11 29 May 11:42:01 11:45:47 29° 292° (WNW) 11:49:29 145.826/435.025
DX 1 29 May 11:44:00 11:48:26 83° 103° (ESE) 11:52:50 434.975-435.025
SEEDS 29 May 11:45:13 11:46:12 11° 300° (WNW) 11:46:59 437.485
CUBEBUG 2 29 May 11:45:32 11:49:28 30° 293° (WNW) 11:53:14 437.445
ANTELSAT 29 May 11:52:46 11:56:26 22° 268° (W) 11:59:58 437.575/2403.000
COMPASS 1 29 May 11:54:23 11:55:08 10° 300° (WNW) 11:55:40 437.405
DOVE 4 29 May 11:55:27 11:56:41 11° 305° (NW) 11:57:39 437.250
Oscar 19 29 May 11:56:18 11:58:37 13° 57° (ENE) 12:01:09 437.125/150
CUBEBUG 1 29 May 11:59:09 12:03:12 34° 96° (E) 12:07:15 437.445
Cosmos 2504 29 May 12:04:07 12:11:00 29° 295° (WNW) 12:17:22 435.465 / 435.565
VELOX 1 29 May 12:08:22 12:12:53 77° 103° (ESE) 12:17:22 145.980
DELFI C3 29 May 12:11:43 12:14:33 18° 295° (WNW) 12:17:18 145.870
DANDE 29 May 12:14:45 12:21:04 30° 84° (E) 12:28:12 436.750
QB50P1 29 May 12:15:02 12:18:35 24° 267° (W) 12:22:03 145.935-145.965
HO-68 29 May 12:17:54 12:22:26 18° 310° (NW) 12:26:43 435.675
POLYITAN 1 29 May 12:18:42 12:22:08 22° 268° (W) 12:25:28 437.675
ESTCUBE 1 29 May 12:21:38 12:26:10 65° 101° (ESE) 12:30:42 437.505/2401.250
TIGRISAT 29 May 12:26:56 12:28:27 11° 274° (W) 12:29:40 435.000
UWE-3 29 May 12:28:14 12:30:54 16° 298° (WNW) 12:33:22 435.000/436.395/437.385
SPROUT 29 May 12:28:14 12:31:26 20° 91° (E) 12:34:43 437.525
FUNcube-1 29 May 12:30:46 12:33:43 18° 297° (WNW) 12:36:29 145.935
